Location: Kalwaria Zebrzydowska
(49.8686°N, 19.6647°E)
Time: 01:15:58
(UTC+01:00)

ISS - Pass Details

Date: 31 January 2019
Orbit: 403 x 411 km, 51.6° (Epoch: 17 February)

Event Time Altitude Azimuth Distance (km) Brightness Sun altitude
Rises 19:47:31 0° 287° (WNW) 2,341 1.2 -31.2°
Reaches altitude 10° 19:49:37 10° 286° (WNW) 1,480 -0.1 -31.5°
Enters shadow 19:49:47 11° 286° (WNW) 1,412 -0.3 -31.6°
